Location: Lafig�re
(44.4503°N, 4.0357°E)
Time: 16:53:39
(UTC+00:00)

NOSS 3-4 (A) - Pass Details

Date: 24 September 2020
Orbit: 886 x 1326 km, 63.4° (Epoch: 19 October)

Event Time Altitude Azimuth Distance (km) Brightness Sun altitude
Rises 18:03:32 0° 174° (S) 3,475 6.3 -5.6°
Reaches altitude 10° 18:06:30 10° 160° (SSE) 2,545 5.5 -6.1°
Maximum altitude 18:10:57 23° 110° (ESE) 1,837 4.4 -6.9°
Drops below altitude 10° 18:15:33 10° 61° (ENE) 2,653 5.3 -7.7°
Sets 18:18:41 0° 47° (NE) 3,661 6.1 -8.3°
